Find NNS 30320-48

NORAD ID: 19071 Int'l Des: 1988-033 Owner: NAVAIR Country: US operational
LEORETROGRADE

Live Position

Loading 3D Globe...

About NNS 30320-48

Description loading...

Upcoming Passes

Passes for default location (London). Set your location on the main map for personalized predictions.

Altitude History

Loading altitude history...

Two-Line Element Set

1 19071U 88033B 26106.65422677 .00000057 00000-0 97142-4 0 9993
2 19071 90.3330 20.4611 0187510 179.2121 247.2932 13.27972603839231
Epoch: Apr 16, 2026 • Age: 20 hours

Current Status

Altitude 1095.1 km
Velocity 7.34 km/s
Sub-Earth Point 64.22°N, 177.79°E
Launch Date Apr 26, 1988
Age 37.9 years
Type other

Technical Details

Classification Payload
Mass 64.00 kg
Dry Mass 64.00 kg
Total Mass 64.00 kg
Length 0.30 m
Diameter 0.50 m
Span 30.00 m
Shape Oct Cyl + 4 Pan + Ant
Manufacturer GEEW
Bus Type Transit 5
Phase Status In Orbit
Owner/State NAVAIR/US

Most Searched